SCP
0 0 0 0 0 0 0 0 0 0 0 1 1 1 1 1 1 1 1 1 1 1 1 1 1 1 1 1 1 2 3 4 4 2 1 1 1 1 0 0 0 0 0 1
0 0 0 0 0 0 0 0 0 0 0 1 1 1 1 1 1 1 1 1 1 1 1 1 1 1 1 1 1 2 3 4 3 2 1 1 1 0 0 0 0 0 0 0
0 0 0 0 0 0 0 0 0 1 1 1 1 1 1 1 1 1 1 1 1 1 1 1 1 1 1 1 1 2 3 3 2 1 1 1 1 0 0 0 0 0 0 0
0 0 0 0 0 0 0 0 0 1 1 0 0 0 0 0 0 0 0 1 1 1 1 1 1 1 1 1 1 2 2 2 1 1 1 1 1 1 1 0 0 0 1 1
0 0 0 0 0 0 0 0 0 0 0 0 0 0 0 0 0 0 0 1 1 1 1 1 1 1 1 1 1 1 1 1 1 1 1 1 1 1 1 1 1 1 1 1
0 0 0 0 0 0 0 0 0 0 0 0 0 0 0 0 1 1 1 1 1 1 1 1 1 1 1 1 1 1 1 1 1 1 1 1 1 1 1 1 1 1 1 1
0 0 0 0 0 0 0 0 0 0 0 0 0 0 0 0 1 1 1 1 1 1 1 1 1 1 1 1 1 1 1 2 2 1 1 1 1 1 1 1 1 1 1 1
0 0 0 0 0 0 0 0 0 0 0 0 0 0 0 1 1 1 1 1 1 1 1 1 1 1 1 1 1 2 2 2 1 1 1 0 0 1 1 1 1 1 1 1
0 0 0 0 0 0 0 0 0 0 0 0 0 0 1 1 1 1 1 1 1 2 2 1 1 1 1 1 2 2 2 2 1 1 1 1 1 1 1 1 1 1 1 1
0 0 0 0 0 0 0 0 0 0 0 0 0 0 1 1 1 1 1 1 1 2 2 1 1 1 1 1 1 2 2 2 1 1 1 1 1 1 1 1 1 1 1 1
0 0 0 0 0 0 0 0 0 0 0 0 0 0 1 1 1 1 1 1 1 2 2 1 1 1 1 1 2 2 2 2 1 1 1 1 1 1 1 1 1 1 1 1
0 0 0 0 0 0 0 0 0 0 0 0 0 0 0 1 1 1 1 1 2 2 2 1 1 1 1 1 2 2 2 2 1 1 1 1 1 1 1 1 1 1 1 1
0 0 0 0 0 0 0 0 0 0 0 0 0 0 0 1 1 1 1 1 2 2 2 1 1 1 1 1 2 3 2 2 1 1 1 1 1 1 1 1 1 1 1 1
0 0 0 0 0 0 0 0 0 0 0 0 0 0 0 1 1 1 1 1 2 2 3 3 2 1 1 1 2 3 2 2 2 1 2 1 1 1 1 1 1 1 1 1
0 0 0 0 0 0 0 0 0 0 0 0 0 0 0 1 1 1 1 1 2 2 3 4 3 2 2 2 2 3 3 3 2 2 2 2 2 1 1 1 1 1 1 1
0 0 0 0 0 0 0 0 0 0 0 0 0 0 0 0 1 1 2 2 2 2 3 4 4 4 3 3 4 5 4 3 2 2 2 2 2 1 1 1 1 1 1 1
0 0 0 0 0 0 0 0 0 0 0 0 0 0 0 1 1 1 2 2 2 2 2 3 5 5 6 7 8 7 5 3 3 3 3 3 2 2 2 1 1 1 1 2
0 0 0 0 0 0 0 0 0 0 0 0 0 1 1 2 2 2 2 2 2 2 2 3 5 7 8 9 10 10 7 4 4 4 4 4 3 3 2 2 1 1 2 2
0 0 0 0 0 0 0 0 0 0 0 0 1 2 3 4 3 3 3 3 3 2 2 2 4 6 8 8 10 10 8 6 6 6 6 5 4 3 2 2 2 1 2 2
0 0 0 0 0 0 0 0 0 0 0 0 1 3 4 4 4 4 5 5 4 3 2 2 3 5 6 7 8 8 7 7 7 7 7 6 5 3 2 2 2 2 2 2
0 0 0 0 0 0 0 0 0 0 0 1 2 3 3 3 3 5 6 7 6 5 3 3 3 5 6 6 7 7 6 6 6 6 5 5 3 2 2 1 1 2 2 2
0 0 0 0 0 0 0 0 0 0 0 0 1 3 3 3 4 5 6 6 6 5 4 3 3 4 5 6 6 6 5 4 4 3 3 2 2 2 1 1 2 2 2 2
0 0 0 0 0 0 0 0 0 0 0 0 1 2 4 5 6 6 6 5 5 4 3 2 2 4 5 5 5 4 2 2 2 2 2 2 1 1 1 2 2 3 3 3
1 0 0 0 0 0 0 0 0 0 0 1 1 2 5 6 7 6 5 5 4 3 2 2 3 4 4 4 3 2 1 1 1 1 2 2 2 1 2 2 3 3 3 3
1 1 0 0 0 0 0 0 0 1 1 1 1 2 4 5 5 5 4 3 3 3 3 3 4 4 3 2 2 2 1 1 1 1 2 2 1 2 2 2 2 2 2 2
1 1 1 0 0 0 0 0 0 1 1 1 1 1 2 3 3 3 3 3 3 3 4 4 4 4 3 2 2 1 1 1 1 2 2 1 1 2 2 2 1 1 1 1
Wind_Speed
2 3 3 6 7 5 4 3 3 3 2 3 3 3 4 4 4 4 4 4 5 5 4 4 4 3 2 2 3 3 3 2 2 2 1 1 0 0 1 1 1 1 1 1
3 3 8 4 3 4 3 2 2 2 1 3 1 2 2 5 5 5 6 6 6 4 3 3 3 3 3 3 3 3 3 2 3 2 2 1 1 0 0 1 1 1 1 1
5 6 3 2 2 2 2 5 4 2 2 3 2 3 2 2 2 3 4 4 5 6 6 4 4 4 4 4 4 4 4 3 3 2 2 2 2 2 2 2 1 2 1 1
4 5 2 1 3 4 3 4 5 3 3 1 1 2 5 2 2 4 4 4 5 5 5 5 4 4 5 5 3 3 3 3 3 3 3 3 2 1 1 1 1 2 2 1
5 3 2 2 4 4 3 3 5 4 4 2 2 1 7 0 3 6 6 7 7 7 7 6 6 5 4 4 3 3 3 2 2 3 3 3 2 1 0 0 1 1 2 1
5 3 3 3 0 4 5 7 7 6 5 1 2 2 6 4 6 5 6 7 7 6 6 5 4 4 3 3 3 3 3 2 2 2 3 3 3 2 1 0 1 1 1 1
4 3 2 2 3 2 5 6 4 4 3 5 1 2 9 6 5 6 7 7 7 7 6 6 5 5 5 4 4 4 4 2 2 3 2 2 3 3 2 2 1 1 1 1
2 5 3 3 6 6 4 7 8 5 5 4 1 5 7 3 2 3 4 5 5 6 6 6 7 6 5 5 4 4 4 3 2 2 2 2 2 2 2 2 1 1 1 2
6 6 3 2 2 8 6 3 5 7 2 0 4 6 7 0 1 2 4 5 5 6 7 7 6 5 5 5 5 5 5 4 3 3 2 2 2 2 2 1 1 1 1 1
8 3 3 1 4 4 5 8 5 6 5 2 4 4 5 4 3 3 4 5 5 5 5 5 5 5 5 5 4 4 4 4 3 2 2 2 2 1 1 1 1 1 1 1
6 4 3 2 2 4 4 4 5 5 5 6 3 7 6 7 6 6 6 6 5 5 6 6 5 5 5 4 4 4 3 3 3 2 2 1 1 1 1 1 1 1 1 0
5 6 2 4 3 1 4 6 8 6 4 4 4 8 4 4 5 5 5 4 4 5 5 5 5 4 4 4 4 4 4 4 3 3 2 2 1 1 1 1 1 1 1 1
6 7 3 5 5 2 2 3 4 6 6 5 4 8 3 1 1 3 4 4 3 4 4 4 4 4 4 4 4 4 4 4 3 3 3 2 1 1 1 1 1 1 1 0
7 5 7 8 7 4 2 3 5 6 5 5 7 7 4 2 2 3 4 4 4 4 5 5 5 4 4 4 4 4 3 3 3 3 3 2 2 2 2 1 1 1 1 0
5 4 3 3 3 3 3 4 6 6 7 8 7 7 7 6 5 5 4 4 5 4 5 6 6 5 5 4 4 4 3 3 3 3 3 3 2 2 1 1 1 1 1 1
4 4 2 1 1 1 1 2 4 4 4 4 3 5 4 2 2 3 3 5 5 5 6 7 6 5 5 5 4 4 3 3 4 4 3 2 2 2 2 1 1 0 0 0
2 5 4 2 2 2 3 4 5 4 4 6 6 6 2 3 5 6 6 6 7 6 6 6 6 6 5 5 5 4 3 3 3 3 3 2 2 2 2 1 1 1 1 1
5 5 4 2 2 4 7 2 3 3 2 3 3 3 5 5 4 3 4 6 6 5 5 5 5 5 5 5 4 4 3 4 4 3 2 2 2 2 2 1 1 1 1 1
4 7 5 4 3 4 4 1 3 4 2 3 4 3 2 2 3 1 2 4 5 5 5 5 5 5 5 5 5 5 4 3 3 3 3 3 3 2 2 2 2 1 1 1
5 5 6 4 4 6 6 3 1 4 3 3 5 5 4 5 2 4 2 2 2 2 2 3 4 4 5 4 5 5 4 4 3 4 4 3 3 3 3 3 2 1 1 1
3 4 4 4 3 6 5 4 2 4 7 3 5 6 6 5 5 3 2 2 3 2 2 3 4 4 4 4 5 5 4 4 3 2 1 2 2 3 3 2 1 1 1 0
4 3 3 4 3 5 3 2 3 6 3 1 3 4 5 3 1 2 3 3 3 3 3 4 4 3 3 4 5 5 3 2 2 2 1 1 1 1 1 1 1 1 1 1
3 4 5 6 6 4 2 2 3 1 1 1 2 3 4 3 2 2 2 2 2 3 3 3 4 3 3 3 4 4 3 2 3 2 2 2 1 1 1 2 1 1 1 1
1 1 2 1 3 3 3 2 2 1 1 1 2 3 5 4 3 3 3 2 1 2 2 3 4 4 2 2 3 3 3 3 3 2 2 1 1 1 1 1 2 2 2 2
3 1 1 2 4 4 3 2 2 2 2 2 2 2 4 5 3 3 3 3 2 2 2 3 3 3 3 3 2 3 4 4 3 2 1 1 1 2 1 1 1 2 3 4
4 5 5 5 5 3 4 3 1 1 1 1 2 2 2 4 5 3 2 2 2 3 2 2 2 2 2 2 2 2 3 4 4 2 2 2 2 2 2 1 1 1 2 2
Wind_Direction
99 85 226 225 203 199 184 187 237 256 191 147 194 222 214 184 187 193 193 195 201 206 204 184 183 177 158 160 164 174 170 164 141 127 133 137 187 297 344 322 331 331 356 55
51 255 239 219 183 171 179 196 251 308 83 140 187 259 219 194 201 200 199 203 205 203 192 186 185 175 173 177 183 183 181 167 168 169 158 155 146 176 215 331 357 354 7 9
199 240 223 189 179 161 206 188 199 191 58 58 81 324 265 222 192 199 205 202 198 199 196 192 187 185 179 188 193 191 186 177 175 157 115 91 66 35 21 5 351 340 351 1
238 250 207 201 212 165 243 210 165 144 105 347 98 278 281 234 231 220 216 208 205 201 191 188 188 189 193 200 187 175 173 174 173 153 146 147 148 168 245 266 319 338 358 1
245 229 213 243 234 175 200 111 111 104 107 62 24 168 286 258 240 237 221 212 208 198 191 193 195 196 195 186 174 167 157 165 166 162 164 158 159 184 232 323 346 340 342 346
244 245 212 211 230 136 125 74 60 53 65 352 247 177 277 236 221 224 214 210 204 194 188 194 192 179 181 168 161 156 154 166 154 151 155 160 164 170 160 291 317 320 331 339
308 301 247 145 89 54 101 94 47 8 8 257 251 206 253 250 224 208 206 205 196 187 182 187 189 183 184 176 170 164 160 169 159 151 155 168 175 182 195 214 240 271 307 311
210 285 250 181 172 174 169 140 155 187 217 268 295 239 256 258 240 205 193 186 178 180 184 189 197 190 186 183 176 170 171 179 169 165 179 178 181 187 204 206 208 229 248 259
182 250 282 226 167 139 140 158 156 127 130 282 280 282 298 224 91 149 162 165 182 184 187 190 193 185 182 183 183 177 174 176 175 178 177 171 186 194 197 194 193 220 248 272
162 219 286 281 87 49 132 141 105 114 142 236 289 277 254 254 219 199 187 188 192 182 181 186 185 182 182 182 174 165 169 177 174 164 170 176 178 181 180 164 200 237 265 303
148 163 297 21 162 173 118 103 108 113 146 155 236 269 232 217 205 195 203 199 187 189 188 181 179 175 171 159 154 159 162 157 155 161 172 158 159 169 157 167 222 235 244 251
147 128 226 267 270 200 156 161 149 148 192 168 175 264 280 213 201 182 192 196 184 185 176 167 164 157 155 155 157 164 163 161 169 166 161 164 159 144 149 211 247 231 232 245
138 119 94 339 339 2 113 142 139 123 120 150 170 260 322 49 170 179 185 187 174 166 158 151 150 162 166 167 168 169 166 172 172 158 156 157 166 176 205 232 247 230 221 235
116 114 157 192 217 204 192 168 151 132 145 186 215 243 288 279 233 210 187 173 166 163 163 160 166 173 174 177 176 171 173 175 165 151 156 176 207 216 222 226 229 225 199 173
108 131 182 215 220 179 195 194 180 182 182 183 219 220 242 228 216 208 188 161 152 163 171 175 176 176 172 174 179 177 176 171 162 156 174 207 214 202 196 203 222 226 192 204
81 128 126 313 328 178 229 223 186 193 179 192 198 244 241 205 163 173 184 172 177 186 188 188 182 177 178 180 182 178 178 171 158 165 186 196 188 185 197 209 196 197 239 216
97 122 120 232 304 56 267 230 188 192 197 175 198 225 171 176 191 192 190 185 192 195 195 190 188 188 185 181 176 180 178 159 157 167 178 183 182 194 216 222 206 226 232 206
137 116 123 138 102 216 242 265 173 164 205 198 201 209 191 201 204 201 191 185 192 195 193 193 187 180 175 167 162 155 148 153 159 167 181 189 184 205 218 200 215 237 234 226
148 135 124 131 184 260 291 246 165 164 242 211 191 195 170 126 76 342 219 184 189 194 195 193 186 171 157 158 158 143 146 158 164 185 199 201 194 200 202 211 229 226 212 246
70 99 118 134 164 221 246 281 188 115 271 232 179 178 160 121 124 252 220 177 183 183 177 172 156 144 150 160 148 143 156 167 194 213 216 203 193 195 203 214 222 219 206 229
55 63 119 151 194 253 271 298 114 153 239 228 181 179 170 178 199 213 164 161 165 157 156 152 148 155 167 153 142 147 158 193 210 206 214 193 193 203 200 198 197 190 196 188
160 141 162 145 176 253 314 88 163 223 267 203 182 179 175 181 156 136 151 158 149 135 125 140 149 158 148 143 145 152 182 194 139 143 169 180 187 213 179 158 172 162 152 160
180 182 182 184 204 240 270 230 262 222 215 219 178 179 158 153 161 151 158 156 154 137 140 144 149 142 132 147 153 162 184 140 132 146 183 191 177 184 161 164 183 187 162 185
284 128 130 267 273 279 285 309 335 340 230 222 154 151 145 151 155 152 152 145 124 110 139 139 140 145 160 168 163 162 155 144 146 172 199 189 182 196 179 179 188 195 202 212
244 149 119 272 285 319 321 323 329 359 31 60 88 123 147 145 154 164 162 165 159 138 143 145 155 168 185 176 172 157 150 149 162 184 194 189 183 184 186 202 214 215 221 211
214 184 177 222 231 210 259 290 307 58 41 71 92 89 122 150 159 153 164 173 155 146 142 142 150 162 179 168 169 168 166 159 164 182 193 200 198 192 193 204 288 283 241 249